Location: Champs
(48.8539°N, 2.6040°E)
Time: 13:25:38
(UTC+00:00)

Cosmos 1441 Rocket - Pass Details

Date: 26 October 2021
Orbit: 495 x 537 km, 81.1° (Epoch: 06 December)

Event Time Altitude Azimuth Distance (km) Brightness Sun altitude
Rises 05:03:37 0° 202° (SSW) 2,582 6.6 -14.3°
Reaches altitude 10° 05:05:47 10° 207° (SSW) 1,699 5.6 -13.9°
Maximum altitude 05:09:25 52° 285° (WNW) 627 3.2 -13.3°
Drops below altitude 10° 05:13:05 10° 3° (N) 1,707 5.8 -12.7°
Sets 05:15:15 0° 8° (N) 2,596 6.8 -12.4°
